Akron, OH

7:05 PM EST on December 04, 2016 (GMT -0500)
Akron Fulton International

Weather History for KAKR - May, 2013

Change the Weather History Date:

Saturday, May 25, 2013

  Actual Average (KCAK) Record (KCAK)
Temperature  
Mean Temperature 46 °F 62 °F  
Max Temperature 60 °F 72 °F 88 °F (1914)
Min Temperature 32 °F 51 °F 29 °F (2013)
Degree Days  
Heating Degree Days 20 5  
Month to date heating degree days 199  
Since 1 July heating degree days 6075  
Cooling Degree Days 0 2  
Month to date cooling degree days 23  
Year to date cooling degree days 29  
Moisture  
Dew Point 32 °F    
Average Humidity 59    
Maximum Humidity 96    
Minimum Humidity 33    
Precipitation  
Precipitation 0.00 in 0.14 in 2.62 in (2011)
Month to date precipitation 3.42  
Year to date precipitation 14.87  
Snow  
Snow 0.00 in 0.00 in - ()
Month to date snowfall 0.1  
Since 1 July snowfall 47.5  
Snow Depth -    
Sea Level Pressure  
Sea Level Pressure 30.32 in    
Wind  
Wind Speed 4 mph (NNW)    
Max Wind Speed 15 mph    
Max Gust Speed 22 mph    
Visibility 9 miles    
Events      
T = Trace of Precipitation, MM = Missing Value Source: NWS Daily Summary

Daily Weather History Graph

Daily Weather History Graph

Search for Another Location

Airport or City:

Trip Planner

Search our weather history database for the weather conditions in past years. The results will help you decide how hot, cold, wet, or windy it might be!

Date:

Astronomy

May. 25, 2013 Rise Set
Actual Time 5:59 AM EDT 8:46 PM EDT
Civil Twilight 5:27 AM EDT 9:18 PM EDT
Nautical Twilight 4:46 AM EDT 9:59 PM EDT
Astronomical Twilight 4:00 AM EDT 10:46 PM EDT
Moon 9:32 PM EDT (5/25) 6:25 AM EDT (5/25)
Length of Visible Light 15h 51m
Length of Day
14h 46m
Full, 100% of the Moon is Illuminated
May 25
Full
May 31
Last Quarter
Jun 8
New
Jun 16
First Quarter
Jun 23
Full

Hourly Weather History & Observations

Time (EDT) Temp. Windchill Dew Point Humidity Pressure Visibility Wind Dir Wind Speed Gust Speed Precip Events Conditions
12:54 AM 37.0 °F - 32.0 °F 82% 30.32 in 10.0 mi Calm Calm - N/A   Clear
1:54 AM 36.0 °F - 33.1 °F 89% 30.32 in 8.0 mi Calm Calm - N/A   Clear
2:54 AM 34.0 °F - 30.9 °F 89% 30.33 in 8.0 mi Calm Calm - N/A   Clear
3:54 AM 33.1 °F - 30.9 °F 92% 30.32 in 7.0 mi Calm Calm - N/A   Clear
4:54 AM 32.0 °F - 28.9 °F 88% 30.34 in 5.0 mi Calm Calm - N/A   Partly Cloudy
5:54 AM 32.0 °F - 28.9 °F 88% 30.35 in 5.0 mi Calm Calm - N/A   Clear
6:54 AM 34.0 °F - 33.1 °F 96% 30.35 in 6.0 mi Calm Calm - N/A   Clear
7:54 AM 39.9 °F - 35.1 °F 83% 30.34 in 10.0 mi Calm Calm - N/A   Clear
8:54 AM 46.0 °F 42.5 °F 37.0 °F 71% 30.36 in 10.0 mi North 6.9 mph - N/A   Clear
9:54 AM 50.0 °F - 36.0 °F 59% 30.36 in 10.0 mi North 9.2 mph - N/A   Clear
10:54 AM 53.1 °F - 35.1 °F 50% 30.36 in 10.0 mi NNW 4.6 mph 17.3 mph N/A   Clear
11:54 AM 55.9 °F - 33.1 °F 42% 30.36 in 10.0 mi North 13.8 mph 21.9 mph N/A   Clear
12:54 PM 57.0 °F - 32.0 °F 39% 30.35 in 10.0 mi NW 10.4 mph 19.6 mph N/A   Clear
1:54 PM 57.9 °F - 32.0 °F 37% 30.33 in 10.0 mi NW 11.5 mph 21.9 mph N/A   Clear
2:54 PM 59.0 °F - 30.0 °F 33% 30.32 in 10.0 mi NNW 15.0 mph - N/A   Clear
3:54 PM 59.0 °F - 32.0 °F 36% 30.32 in 10.0 mi NNW 10.4 mph 19.6 mph N/A   Clear
4:54 PM 59.0 °F - 32.0 °F 36% 30.30 in 10.0 mi North 15.0 mph 19.6 mph N/A   Clear
5:54 PM 57.9 °F - 30.9 °F 36% 30.30 in 10.0 mi North 15.0 mph - N/A   Clear
6:54 PM 57.0 °F - 30.0 °F 36% 30.29 in 10.0 mi NNW 9.2 mph - N/A   Clear
7:54 PM 55.0 °F - 30.9 °F 40% 30.30 in 10.0 mi NNW 11.5 mph - N/A   Clear
8:54 PM 51.1 °F - 30.0 °F 44% 30.28 in 10.0 mi North 6.9 mph - N/A   Clear
9:54 PM 48.9 °F - 30.0 °F 48% 30.28 in 10.0 mi North 3.5 mph - N/A   Clear
10:54 PM 46.0 °F 44.8 °F 30.9 °F 56% 30.29 in 10.0 mi North 3.5 mph - N/A   Clear
11:54 PM 46.0 °F - 30.9 °F 56% 30.29 in 10.0 mi Calm Calm - N/A   Clear